Content
SEND FEEDBACK

Daily
Averages
Monthly
Summary
France

ROUEN, FRANCE


Home > Europe > France
Elevation: 515 feet     Latitude: 49 23N     Longitude: 001 11E

WEATHER
 
SELECT A DAY
Number of Records: 180,580;   Date Range: 7/1/96 - 10/24/14
 
SHARE

PRINT THIS DATA

[ ← Previous Day ]
WEATHER ALMANAC - JANUARY 28, 2013
[ Next Day → ]
[ °C ]   °F
Weather ElementAverageHighLow
Temperature42.8 °F50 °F (11:00 pm)35.6 °F (2:00 am)
Dewpoint38.1 °F44.6 °F (9:30 pm)32 °F (1:00 am)
Humidity83.6 %100 % (9:00 am)65 % (1:00 pm)
Barometer29.89 in30.01 in (12:00 pm)29.77 in (12:30 am)
Wind Speed13.5 mph23 mph (11:00 pm)
Wind Gust33.4 mph (11:30 pm)
Weather ElementAverage
Visibility7.5 mi
Wind DirectionSW (227.8 °)

Weather ElementTotal
Precipitation---
Heating Degree Days22.2 (Base 65)
Averaged from 51 records on January 28, 2013
WEATHER CONDITIONS BREAKOUT
WIND DIRECTION BREAKOUT
WEATHER BY HOUR - JANUARY 28, 2013
[ °C ]   °F
Local TimeTemperatureDewpointHumidityBarometerVisibilityWind DirectionWind SpeedGust SpeedPrecipitationEventsConditions
12:30 AM39.2 °F33.8 °F81 %29.77 in6.2 miSW (220°)11.5 mphMostly Cloudy
1:00 AM37.0 °F32.0 °F75 %29.81 in11.0 miSW (220°)9.2 mphClear
1:00 AM37.4 °F32.0 °F81 %29.77 in6.2 miSW (220°)9.2 mphPartly Cloudy
1:30 AM37.4 °F32.0 °F81 %29.77 in6.2 miSW (220°)11.5 mphPartly Cloudy
2:00 AM35.6 °F32.0 °F87 %29.80 in6.2 miSW (220°)10.4 mphPartly Cloudy
2:30 AM37.4 °F33.8 °F87 %29.80 in6.2 miSW (220°)11.5 mph
3:00 AM37.4 °F33.8 °F87 %29.80 in6.2 miSW (220°)8.1 mph
3:30 AM37.4 °F33.8 °F87 %29.80 in6.2 miSW (220°)9.2 mphMostly Cloudy
4:00 AM37.4 °F33.8 °F87 %29.80 in6.2 miWSW (240°)6.9 mphMostly Cloudy
4:30 AM39.2 °F35.6 °F87 %29.83 in6.2 miWSW (250°)8.1 mphMostly Cloudy
5:00 AM39.2 °F37.4 °F93 %29.83 in6.2 miWest (260°)8.1 mphRainLight Rain
5:30 AM39.2 °F37.4 °F93 %29.83 in6.2 miWSW (250°)8.1 mphLight Drizzle
6:00 AM39.2 °F37.4 °F93 %29.83 in6.2 miWest (260°)10.4 mphOvercast
6:30 AM37.4 °F35.6 °F93 %29.86 in6.2 miWest (260°)9.2 mphScattered Clouds
7:00 AM38.0 °F37.0 °F95 %29.91 in25.0 miWest (260°)10.4 mphMostly Cloudy
7:00 AM39.2 °F37.4 °F93 %29.89 in6.2 miWest (260°)10.4 mphMostly Cloudy
7:30 AM37.4 °F35.6 °F93 %29.89 in6.2 miWest (260°)8.1 mphOvercast
8:00 AM37.4 °F35.6 °F93 %29.89 in6.2 miWSW (240°)6.9 mphMostly Cloudy
8:30 AM35.6 °F33.8 °F93 %29.92 in6.2 miSW (230°)8.1 mphPartly Cloudy
9:00 AM35.6 °F35.6 °F100 %29.92 in6.2 miSW (230°)8.1 mph
9:30 AM37.4 °F35.6 °F93 %29.95 in6.2 miSW (230°)6.9 mph
10:00 AM39.2 °F37.4 °F93 %29.95 in6.2 miSW (230°)5.8 mphPartly Cloudy
10:30 AM41.0 °F39.2 °F93 %29.95 in6.2 miWSW (240°)8.1 mphPartly Cloudy
11:00 AM42.8 °F39.2 °F87 %29.98 in6.2 miWSW (240°)8.1 mphPartly Cloudy
11:30 AM44.6 °F39.2 °F81 %29.98 in6.2 miWSW (240°)11.5 mphMostly Cloudy
12:00 PM46.4 °F41.0 °F81 %30.01 in6.2 miWSW (240°)10.4 mph
12:30 PM46.4 °F39.2 °F76 %29.98 in6.2 miWSW (240°)10.4 mphMostly Cloudy
1:00 PM47.0 °F39.0 °F65 %30.01 in25.0 miWSW (240°)12.7 mphPartly Cloudy
1:00 PM46.4 °F39.2 °F76 %29.98 in6.2 miWSW (240°)12.7 mphMostly Cloudy
1:30 PM48.2 °F39.2 °F71 %29.98 in6.2 miSW (230°)13.8 mph
2:00 PM46.4 °F37.4 °F71 %29.98 in6.2 miSW (220°)15.0 mph
2:30 PM46.4 °F39.2 °F76 %29.98 in6.2 miSW (220°)12.7 mphPartly Cloudy
3:00 PM46.4 °F37.4 °F71 %29.98 in6.2 miSSW (210°)15.0 mphMostly Cloudy
3:30 PM46.4 °F39.2 °F76 %29.95 in6.2 miSSW (200°)16.1 mph
4:00 PM46.4 °F37.4 °F71 %29.95 in6.2 miSSW (210°)18.4 mph
4:30 PM46.4 °F39.2 °F76 %29.95 in6.2 miSSW (210°)18.4 mphOvercast
5:00 PM46.4 °F39.2 °F76 %29.95 in6.2 miSSW (210°)19.6 mphMostly Cloudy
5:30 PM46.4 °F39.2 °F76 %29.92 in6.2 miSSW (210°)19.6 mphOvercast
6:00 PM46.4 °F41.0 °F81 %29.92 in6.2 miSSW (200°)19.6 mphOvercast
6:30 PM46.4 °F41.0 °F81 %29.89 in6.2 miSSW (200°)19.6 mphOvercast
7:00 PM47.0 °F40.0 °F71 %29.91 in28.0 miSSW (210°)20.7 mphClear
7:00 PM46.4 °F41.0 °F81 %29.89 in6.2 miSSW (210°)20.7 mphMostly Cloudy
7:30 PM46.4 °F41.0 °F81 %29.89 in6.2 miSSW (210°)19.6 mphOvercast
8:00 PM48.2 °F41.0 °F76 %29.89 in6.2 miSW (220°)20.7 mphOvercast
8:30 PM46.4 °F42.8 °F87 %29.86 in6.2 miSW (220°)21.9 mphOvercast
9:00 PM46.4 °F42.8 °F87 %29.86 in6.2 miSW (220°)20.7 mphOvercast
9:30 PM46.4 °F44.6 °F93 %29.86 in6.2 miSW (220°)21.9 mphLight Drizzle
10:00 PM48.2 °F44.6 °F87 %29.86 in6.2 miSW (220°)19.6 mphRainLight Rain
10:30 PM48.2 °F44.6 °F87 %29.83 in6.2 miSW (220°)21.9 mphOvercast
11:00 PM50.0 °F44.6 °F82 %29.83 in6.2 miSW (220°)23.0 mphOvercast
11:30 PM50.0 °F44.6 °F82 %29.83 in6.2 miSW (230°)21.9 mph33.4 mphOvercast
Hourly data recorded from LFOP, located miles away from Rouen, France







STORIES FROM OUR PARTNERS